Time,TemperatureF,DewpointF,PressureIn,WindDirection,WindDirectionDegrees,WindSpeedMPH,WindSpeedGustMPH,Humidity,HourlyPrecipIn,Conditions,Clouds,dailyrainin,SolarRadiationWatts/m^2,SoftwareType,DateUTC
2013-05-13 00:07:00,64.1,33.0,30.02,WNW,296,0.0,-999.0,31,-99.99,,,0.00,0,weatherlink.com 1.10,2013-05-13 06:07:00,
2013-05-13 00:22:00,63.8,32.0,30.02,WNW,296,0.0,-999.0,31,-99.99,,,0.00,0,weatherlink.com 1.10,2013-05-13 06:22:00,
2013-05-13 00:37:00,65.1,33.0,30.02,West,278,5.0,-999.0,30,-99.99,,,0.00,0,weatherlink.com 1.10,2013-05-13 06:37:00,
2013-05-13 00:52:00,65.0,33.0,30.02,WNW,288,4.0,-999.0,30,-99.99,,,0.00,0,weatherlink.com 1.10,2013-05-13 06:52:00,
2013-05-13 01:07:00,64.1,33.0,30.02,WNW,288,3.0,-999.0,32,-99.99,,,0.00,0,weatherlink.com 1.10,2013-05-13 07:07:00,
2013-05-13 01:22:00,59.9,33.0,30.01,South,175,0.0,-999.0,37,-99.99,,,0.00,0,weatherlink.com 1.10,2013-05-13 07:22:00,
2013-05-13 01:37:00,60.3,33.0,30.01,SSW,205,0.0,-999.0,36,-99.99,,,0.00,0,weatherlink.com 1.10,2013-05-13 07:37:00,
2013-05-13 01:52:00,61.1,33.0,30.00,SSW,205,0.0,-999.0,35,-99.99,,,0.00,0,weatherlink.com 1.10,2013-05-13 07:52:00,
2013-05-13 02:07:00,60.7,33.0,30.00,SSW,205,0.0,-999.0,36,-99.99,,,0.00,0,weatherlink.com 1.10,2013-05-13 08:07:00,
2013-05-13 02:22:00,62.0,33.0,30.00,West,265,0.0,-999.0,34,-99.99,,,0.00,0,weatherlink.com 1.10,2013-05-13 08:22:00,
2013-05-13 02:37:00,61.8,34.0,30.00,West,265,0.0,-999.0,35,-99.99,,,0.00,0,weatherlink.com 1.10,2013-05-13 08:37:00,
2013-05-13 02:52:00,60.9,34.0,30.00,SW,221,0.0,-999.0,36,-99.99,,,0.00,0,weatherlink.com 1.10,2013-05-13 08:52:00,
2013-05-13 03:07:00,61.4,33.0,30.00,SW,221,0.0,-999.0,35,-99.99,,,0.00,0,weatherlink.com 1.10,2013-05-13 09:07:00,
2013-05-13 03:22:00,58.0,33.0,30.01,SSE,168,0.0,-999.0,39,-99.99,,,0.00,0,weatherlink.com 1.10,2013-05-13 09:22:00,
2013-05-13 03:37:00,59.3,33.0,30.00,SW,217,0.0,-999.0,38,-99.99,,,0.00,0,weatherlink.com 1.10,2013-05-13 09:37:00,
2013-05-13 03:52:00,61.1,34.0,30.00,SSW,205,0.0,-999.0,36,-99.99,,,0.00,0,weatherlink.com 1.10,2013-05-13 09:52:00,
2013-05-13 04:07:00,59.8,33.0,30.00,South,184,0.0,-999.0,37,-99.99,,,0.00,0,weatherlink.com 1.10,2013-05-13 10:07:00,
2013-05-13 04:22:00,59.6,34.0,30.00,South,184,0.0,-999.0,38,-99.99,,,0.00,0,weatherlink.com 1.10,2013-05-13 10:22:00,
2013-05-13 04:37:00,58.4,33.0,30.01,South,190,0.0,-999.0,39,-99.99,,,0.00,0,weatherlink.com 1.10,2013-05-13 10:37:00,
2013-05-13 04:52:00,58.4,34.0,30.00,SW,228,2.0,-999.0,40,-99.99,,,0.00,0,weatherlink.com 1.10,2013-05-13 10:52:00,
2013-05-13 05:07:00,59.8,33.0,30.00,WSW,251,4.0,-999.0,37,-99.99,,,0.00,0,weatherlink.com 1.10,2013-05-13 11:07:00,
2013-05-13 05:22:00,59.0,33.0,30.00,WSW,254,0.0,-999.0,38,-99.99,,,0.00,0,weatherlink.com 1.10,2013-05-13 11:22:00,
2013-05-13 05:37:00,59.2,33.0,30.00,WSW,257,0.0,-999.0,38,-99.99,,,0.00,0,weatherlink.com 1.10,2013-05-13 11:37:00,
2013-05-13 05:52:00,59.0,34.0,30.00,WSW,242,0.0,-999.0,39,-99.99,,,0.00,0,weatherlink.com 1.10,2013-05-13 11:52:00,
2013-05-13 06:07:00,58.7,34.0,30.00,WSW,238,3.0,-999.0,39,-99.99,,,0.00,11,weatherlink.com 1.10,2013-05-13 12:07:00,
2013-05-13 06:23:00,58.6,34.0,30.01,WSW,240,5.0,-999.0,39,-99.99,,,0.00,37,weatherlink.com 1.10,2013-05-13 12:23:00,
2013-05-13 06:38:00,59.8,34.0,30.02,WSW,240,2.0,-999.0,38,-99.99,,,0.00,69,weatherlink.com 1.10,2013-05-13 12:38:00,
2013-05-13 06:53:00,59.6,34.0,30.02,WSW,249,4.0,-999.0,38,-99.99,,,0.00,81,weatherlink.com 1.10,2013-05-13 12:53:00,
2013-05-13 07:08:00,59.9,33.0,30.02,WSW,242,2.0,-999.0,37,-99.99,,,0.00,111,weatherlink.com 1.10,2013-05-13 13:08:00,
2013-05-13 07:23:00,60.7,34.0,30.02,WSW,251,3.0,-999.0,37,-99.99,,,0.00,135,weatherlink.com 1.10,2013-05-13 13:23:00,
2013-05-13 07:38:00,60.9,34.0,30.03,WSW,250,0.0,-999.0,37,-99.99,,,0.00,153,weatherlink.com 1.10,2013-05-13 13:38:00,
2013-05-13 07:53:00,62.6,34.0,30.03,SW,221,2.0,-999.0,34,-99.99,,,0.00,153,weatherlink.com 1.10,2013-05-13 13:53:00,
2013-05-13 08:08:00,63.4,34.0,30.03,SSW,211,0.0,-999.0,34,-99.99,,,0.00,181,weatherlink.com 1.10,2013-05-13 14:08:00,
2013-05-13 08:23:00,63.6,36.0,30.03,South,182,0.0,-999.0,36,-99.99,,,0.00,258,weatherlink.com 1.10,2013-05-13 14:23:00,
2013-05-13 08:38:00,64.7,37.0,30.03,South,182,0.0,-999.0,36,-99.99,,,0.00,512,weatherlink.com 1.10,2013-05-13 14:38:00,
2013-05-13 08:53:00,67.1,35.0,30.03,SSW,213,1.0,-999.0,31,-99.99,,,0.00,531,weatherlink.com 1.10,2013-05-13 14:53:00,
2013-05-13 09:08:00,69.1,37.0,30.02,SW,223,0.0,-999.0,31,-99.99,,,0.00,554,weatherlink.com 1.10,2013-05-13 15:08:00,
2013-05-13 09:23:00,70.8,37.0,30.02,SW,217,3.0,-999.0,29,-99.99,,,0.00,606,weatherlink.com 1.10,2013-05-13 15:23:00,
2013-05-13 09:38:00,71.9,38.0,30.02,South,188,1.0,-999.0,29,-99.99,,,0.00,487,weatherlink.com 1.10,2013-05-13 15:38:00,
2013-05-13 09:53:00,72.8,39.0,30.01,SSW,204,2.0,-999.0,29,-99.99,,,0.00,772,weatherlink.com 1.10,2013-05-13 15:53:00,
2013-05-13 10:08:00,74.9,39.0,30.01,WNW,284,0.0,-999.0,27,-99.99,,,0.00,601,weatherlink.com 1.10,2013-05-13 16:08:00,
2013-05-13 10:23:00,76.0,39.0,30.01,SW,218,0.0,-999.0,26,-99.99,,,0.00,786,weatherlink.com 1.10,2013-05-13 16:23:00,
2013-05-13 10:39:00,77.4,42.0,30.00,NNW,328,0.0,-999.0,28,-99.99,,,0.00,830,weatherlink.com 1.10,2013-05-13 16:39:00,
2013-05-13 10:54:00,79.3,37.0,30.00,North,5,0.0,-999.0,22,-99.99,,,0.00,737,weatherlink.com 1.10,2013-05-13 16:54:00,
2013-05-13 11:09:00,80.3,38.0,30.00,WNW,283,0.0,-999.0,22,-99.99,,,0.00,875,weatherlink.com 1.10,2013-05-13 17:09:00,
2013-05-13 11:24:00,81.6,37.0,29.99,NNW,337,0.0,-999.0,20,-99.99,,,0.00,824,weatherlink.com 1.10,2013-05-13 17:24:00,
2013-05-13 11:39:00,81.9,36.0,29.99,SW,234,11.0,-999.0,19,-99.99,,,0.00,939,weatherlink.com 1.10,2013-05-13 17:39:00,
2013-05-13 11:54:00,82.6,34.0,29.98,WSW,253,17.0,-999.0,17,-99.99,,,0.00,935,weatherlink.com 1.10,2013-05-13 17:54:00,
2013-05-13 12:09:00,81.9,33.0,29.97,WNW,295,4.0,-999.0,17,-99.99,,,0.00,951,weatherlink.com 1.10,2013-05-13 18:09:00,
2013-05-13 12:24:00,82.1,32.0,29.96,ENE,59,1.0,-999.0,16,-99.99,,,0.00,976,weatherlink.com 1.10,2013-05-13 18:24:00,
2013-05-13 12:39:00,83.1,32.0,29.96,West,266,10.0,-999.0,16,-99.99,,,0.00,144,weatherlink.com 1.10,2013-05-13 18:39:00,
2013-05-13 12:54:00,82.6,32.0,29.95,SW,225,3.0,-999.0,16,-99.99,,,0.00,993,weatherlink.com 1.10,2013-05-13 18:54:00,
2013-05-13 13:09:00,82.6,32.0,29.94,West,263,3.0,-999.0,16,-99.99,,,0.00,1013,weatherlink.com 1.10,2013-05-13 19:09:00,
2013-05-13 13:24:00,81.7,31.0,29.94,SW,232,3.0,-999.0,16,-99.99,,,0.00,253,weatherlink.com 1.10,2013-05-13 19:24:00,
2013-05-13 13:39:00,83.2,29.0,29.93,West,276,7.0,-999.0,14,-99.99,,,0.00,998,weatherlink.com 1.10,2013-05-13 19:39:00,
2013-05-13 13:54:00,82.9,29.0,29.92,SSW,211,12.0,-999.0,14,-99.99,,,0.00,958,weatherlink.com 1.10,2013-05-13 19:54:00,
2013-05-13 14:09:00,83.4,28.0,29.92,WSW,248,14.0,-999.0,13,-99.99,,,0.00,972,weatherlink.com 1.10,2013-05-13 20:09:00,
2013-05-13 14:24:00,84.5,28.0,29.91,West,272,16.0,-999.0,13,-99.99,,,0.00,190,weatherlink.com 1.10,2013-05-13 20:24:00,
2013-05-13 14:39:00,84.1,28.0,29.90,West,277,10.0,-999.0,13,-99.99,,,0.00,940,weatherlink.com 1.10,2013-05-13 20:39:00,
2013-05-13 14:54:00,84.5,28.0,29.90,WSW,248,18.0,-999.0,13,-99.99,,,0.00,898,weatherlink.com 1.10,2013-05-13 20:54:00,
2013-05-13 15:09:00,84.2,30.0,29.89,SSW,202,11.0,-999.0,14,-99.99,,,0.00,911,weatherlink.com 1.10,2013-05-13 21:09:00,
2013-05-13 15:24:00,84.5,27.0,29.89,SW,223,13.0,-999.0,12,-99.99,,,0.00,97,weatherlink.com 1.10,2013-05-13 21:24:00,
2013-05-13 15:39:00,84.0,28.0,29.88,WSW,252,13.0,-999.0,13,-99.99,,,0.00,810,weatherlink.com 1.10,2013-05-13 21:39:00,
2013-05-13 15:54:00,84.8,29.0,29.87,SW,236,19.0,-999.0,13,-99.99,,,0.00,775,weatherlink.com 1.10,2013-05-13 21:54:00,
2013-05-13 16:09:00,85.0,27.0,29.86,SW,215,23.0,-999.0,12,-99.99,,,0.00,754,weatherlink.com 1.10,2013-05-13 22:09:00,
2013-05-13 16:24:00,84.8,31.0,29.85,South,190,3.0,-999.0,14,-99.99,,,0.00,714,weatherlink.com 1.10,2013-05-13 22:24:00,
2013-05-13 16:39:00,85.4,31.0,29.84,West,280,8.0,-999.0,14,-99.99,,,0.00,701,weatherlink.com 1.10,2013-05-13 22:39:00,
2013-05-13 16:54:00,84.6,27.0,29.83,West,266,21.0,-999.0,12,-99.99,,,0.00,74,weatherlink.com 1.10,2013-05-13 22:54:00,
2013-05-13 17:10:00,84.4,28.0,29.83,SW,234,22.0,-999.0,13,-99.99,,,0.00,613,weatherlink.com 1.10,2013-05-13 23:10:00,
2013-05-13 17:24:00,84.7,27.0,29.82,SW,234,18.0,-999.0,12,-99.99,,,0.00,533,weatherlink.com 1.10,2013-05-13 23:24:00,
2013-05-13 17:40:00,84.7,27.0,29.82,WSW,244,15.0,-999.0,12,-99.99,,,0.00,381,weatherlink.com 1.10,2013-05-13 23:40:00,
2013-05-13 17:55:00,84.5,27.0,29.81,WSW,248,19.0,-999.0,12,-99.99,,,0.00,441,weatherlink.com 1.10,2013-05-13 23:55:00,
2013-05-13 18:10:00,84.1,28.0,29.81,SW,236,20.0,-999.0,13,-99.99,,,0.00,359,weatherlink.com 1.10,2013-05-14 00:10:00,
2013-05-13 18:25:00,83.3,28.0,29.81,WSW,248,19.0,-999.0,13,-99.99,,,0.00,320,weatherlink.com 1.10,2013-05-14 00:25:00,
2013-05-13 18:40:00,83.8,28.0,29.80,WSW,250,12.0,-999.0,13,-99.99,,,0.00,267,weatherlink.com 1.10,2013-05-14 00:40:00,
2013-05-13 18:55:00,83.2,27.0,29.81,WSW,248,15.0,-999.0,13,-99.99,,,0.00,218,weatherlink.com 1.10,2013-05-14 00:55:00,
2013-05-13 19:10:00,82.3,28.0,29.81,WSW,242,14.0,-999.0,14,-99.99,,,0.00,156,weatherlink.com 1.10,2013-05-14 01:10:00,
2013-05-13 19:25:00,81.6,28.0,29.81,WSW,247,13.0,-999.0,14,-99.99,,,0.00,69,weatherlink.com 1.10,2013-05-14 01:25:00,
2013-05-13 19:40:00,80.8,29.0,29.80,WSW,257,13.0,-999.0,15,-99.99,,,0.00,37,weatherlink.com 1.10,2013-05-14 01:40:00,
2013-05-13 19:55:00,79.5,29.0,29.81,WSW,254,7.0,-999.0,16,-99.99,,,0.00,26,weatherlink.com 1.10,2013-05-14 01:55:00,
2013-05-13 20:10:00,78.4,30.0,29.80,WSW,244,7.0,-999.0,17,-99.99,,,0.00,14,weatherlink.com 1.10,2013-05-14 02:10:00,
2013-05-13 20:25:00,77.5,29.0,29.80,WSW,237,7.0,-999.0,17,-99.99,,,0.00,5,weatherlink.com 1.10,2013-05-14 02:25:00,
2013-05-13 20:40:00,75.9,29.0,29.81,WSW,249,6.0,-999.0,18,-99.99,,,0.00,0,weatherlink.com 1.10,2013-05-14 02:40:00,
2013-05-13 20:55:00,74.7,30.0,29.81,WSW,239,3.0,-999.0,19,-99.99,,,0.00,0,weatherlink.com 1.10,2013-05-14 02:55:00,
2013-05-13 21:10:00,73.6,30.0,29.81,WSW,247,8.0,-999.0,20,-99.99,,,0.00,0,weatherlink.com 1.10,2013-05-14 03:10:00,
2013-05-13 21:25:00,72.8,29.0,29.81,WSW,248,4.0,-999.0,20,-99.99,,,0.00,0,weatherlink.com 1.10,2013-05-14 03:25:00,
2013-05-13 21:40:00,72.0,29.0,29.81,WSW,240,3.0,-999.0,20,-99.99,,,0.00,0,weatherlink.com 1.10,2013-05-14 03:40:00,
2013-05-13 21:55:00,71.1,28.0,29.81,SW,226,4.0,-999.0,20,-99.99,,,0.00,0,weatherlink.com 1.10,2013-05-14 03:55:00,
2013-05-13 22:10:00,71.5,28.0,29.81,WSW,244,4.0,-999.0,20,-99.99,,,0.00,0,weatherlink.com 1.10,2013-05-14 04:10:00,
2013-05-13 22:25:00,70.9,28.0,29.81,WSW,246,4.0,-999.0,20,-99.99,,,0.00,0,weatherlink.com 1.10,2013-05-14 04:25:00,
2013-05-13 22:40:00,70.7,28.0,29.81,WSW,249,6.0,-999.0,20,-99.99,,,0.00,0,weatherlink.com 1.10,2013-05-14 04:40:00,
2013-05-13 22:55:00,71.3,28.0,29.80,South,174,0.0,-999.0,20,-99.99,,,0.00,0,weatherlink.com 1.10,2013-05-14 04:55:00,
2013-05-13 23:10:00,71.6,27.0,29.80,WSW,238,6.0,-999.0,19,-99.99,,,0.00,0,weatherlink.com 1.10,2013-05-14 05:10:00,
2013-05-13 23:25:00,71.3,28.0,29.80,South,176,2.0,-999.0,20,-99.99,,,0.00,0,weatherlink.com 1.10,2013-05-14 05:25:00,
2013-05-13 23:40:00,69.4,29.0,29.79,South,171,0.0,-999.0,22,-99.99,,,0.00,0,weatherlink.com 1.10,2013-05-14 05:40:00,
2013-05-13 23:55:00,69.0,28.0,29.79,SSE,167,0.0,-999.0,22,-99.99,,,0.00,0,weatherlink.com 1.10,2013-05-14 05:55:00,